FW7079 Weather Reports


Display with metric or nautical units.
time (UTC)temp
F
wind
direction
speed
MPH
gust
MPH
rain 1hr
in
rain 24hr
in
rain mn
in
humidity
%
barometer
mb
20260904140108 79 152 0.0 4.0 0.00 0.00 0.00 79 1014.7
20260904134616 77 0 1.0 4.0 0.00 0.00 0.00 81 1014.8
20260904133100 76 131 0.0 4.0 0.00 0.00 0.00 83 1014.7
20260904131601 74 0 0.0 1.0 0.00 0.00 0.00 86 1014.7
20260904130103 73 0 0.0 2.0 0.00 0.00 0.00 89 1014.6
20260904124613 72 0 0.0 0.0 0.00 0.00 0.00 90 1014.4
20260904123106 72 0 0.0 0.0 0.00 0.00 0.00 89 1014.2
20260904121602 72 0 0.0 0.0 0.00 0.00 0.00 90 1014.1
20260904114603 72 0 0.0 0.0 0.00 0.00 0.00 89 1013.9
20260904113100 72 0 0.0 0.0 0.00 0.00 0.00 88 1014.0
20260904111606 73 0 0.0 0.0 0.00 0.00 0.00 89 1013.8
20260904110104 73 0 0.0 0.0 0.00 0.00 0.00 88 1014.0
20260904104603 73 0 0.0 0.0 0.00 0.00 0.00 88 1013.9
20260904103104 73 0 0.0 0.0 0.00 0.00 0.00 88 1014.0
20260904101556 73 0 0.0 0.0 0.00 0.00 0.00 88 1013.9
20260904100106 73 0 0.0 0.0 0.00 0.00 0.00 87 1014.0
20260904094604 74 0 0.0 0.0 0.00 0.00 0.00 87 1013.9
20260904093100 74 0 0.0 1.0 0.00 0.00 0.00 86 1013.7
20260904091557 74 0 0.0 0.0 0.00 0.00 0.00 86 1013.6
20260904090106 75 0 0.0 0.0 0.00 0.00 0.00 85 1013.7
20260904084600 75 0 0.0 0.0 0.00 0.00 0.00 83 1013.7
20260904083149 76 0 0.0 0.0 0.00 0.00 0.00 83 1013.4
20260904081608 77 0 0.0 1.0 0.00 0.00 0.00 81 1013.4
20260904074559 78 0 0.0 1.0 0.00 0.00 0.00 79 1013.3
20260904073101 78 0 0.0 2.0 0.00 0.00 0.00 78 1013.3
20260904071622 78 136 0.0 2.0 0.00 0.00 0.00 78 1013.4
20260904070117 79 138 1.0 4.0 0.00 0.00 0.00 78 1013.6
20260904064559 79 142 1.0 3.0 0.00 0.00 0.00 77 1013.6
20260904063104 79 0 0.0 5.0 0.00 0.00 0.00 77 1013.7
20260904061557 79 142 0.0 4.0 0.00 0.00 0.00 76 1013.8
20260904060100 80 132 1.0 6.0 0.00 0.00 0.00 75 1013.9
20260904054605 80 131 0.0 2.0 0.00 0.00 0.00 75 1013.7
20260904053106 80 146 0.0 4.0 0.00 0.00 0.00 74 1013.6
20260904051600 80 105 0.0 3.0 0.00 0.00 0.00 74 1013.4
20260904050105 81 0 0.0 3.0 0.00 0.00 0.00 73 1013.5
20260904044603 81 148 0.0 3.0 0.00 0.00 0.00 72 1013.5
20260904043111 82 148 0.0 4.0 0.00 0.00 0.00 71 1013.7
20260904041601 82 30 1.0 7.0 0.00 0.00 0.00 70 1013.6
20260904040111 82 0 0.0 3.0 0.00 0.00 0.00 69 1013.7
20260904034600 83 115 1.0 4.0 0.00 0.00 0.00 69 1013.6
20260904033100 83 126 1.0 3.0 0.00 0.00 0.00 68 1013.8
20260904031608 84 132 1.0 4.0 0.00 0.00 0.00 67 1013.7
20260904030103 84 111 0.0 5.0 0.00 0.00 0.00 66 1013.5
20260904024604 85 105 0.0 1.0 0.00 0.00 0.00 66 1013.4
20260904023059 85 122 1.0 4.0 0.00 0.00 0.00 65 1013.1
20260904021557 86 148 1.0 4.0 0.00 0.00 0.00 65 1013.0
20260904020101 86 126 1.0 6.0 0.00 0.00 0.00 64 1012.9
20260904014608 87 66 1.0 6.0 0.00 0.00 0.00 63 1012.5
20260904013058 87 132 1.0 7.0 0.00 0.00 0.00 62 1012.2
20260904011602 88 61 1.0 7.0 0.00 0.00 0.00 61 1012.0
20260904010101 88 76 2.0 11.0 0.00 0.00 0.00 60 1011.7
20260904004606 89 132 3.0 13.0 0.00 0.00 0.00 59 1011.6
20260904003059 90 159 2.0 10.0 0.00 0.00 0.00 58 1011.5
20260904001555 91 61 2.0 7.0 0.00 0.00 0.00 57 1011.4
20260904000109 91 207 2.0 12.0 0.00 0.00 0.00 56 1011.5
20260903234601 91 15 2.0 6.0 0.00 0.00 0.00 55 1011.4
20260903233103 92 50 2.0 10.0 0.00 0.00 0.00 55 1011.2
20260903231602 92 126 2.0 6.0 0.00 0.00 0.00 55 1011.1
20260903230059 93 136 3.0 9.0 0.00 0.00 0.00 54 1011.1
20260903224558 93 109 2.0 13.0 0.00 0.00 0.00 55 1011.3
20260903223102 93 89 2.0 8.0 0.00 0.00 0.00 53 1011.3
20260903221602 93 136 3.0 8.0 0.00 0.00 0.00 52 1011.4
20260903220101 93 66 2.0 9.0 0.00 0.00 0.00 53 1011.4
20260903214610 94 155 2.0 7.0 0.00 0.00 0.00 52 1011.5
20260903213100 94 153 2.0 7.0 0.00 0.00 0.00 51 1011.6
20260903211611 95 136 3.0 8.0 0.00 0.00 0.00 52 1011.6
20260903210058 95 115 1.0 2.0 0.00 0.00 0.00 51 1011.7
20260903204602 95 131 3.0 9.0 0.00 0.00 0.00 50 1011.9
20260903203057 96 0.0 0.0 0.00 0.00 0.00 50 1012.1
20260903201608 96 0.0 0.0 0.00 0.00 0.00 50 1012.3
20260903200059 96 0.0 0.0 0.00 0.00 0.00 51 1012.3
20260903194600 96 0.0 0.0 0.00 0.00 0.00 51 1012.4
20260903193057 97 0.0 0.0 0.00 0.00 0.00 51 1012.6
20260903191558 97 0.0 0.0 0.00 0.00 0.00 51 1012.7
20260903190106 96 0.0 0.0 0.00 0.00 0.00 51 1013.0
20260903184602 96 0.0 0.0 0.00 0.00 0.00 52 1013.1
20260903183103 96 0.0 0.0 0.00 0.00 0.00 52 1013.5
20260903181604 96 0.0 0.0 0.00 0.00 0.00 52 1013.6
20260903180104 95 0.0 0.0 0.00 0.00 0.00 53 1013.8
20260903174607 94 0.0 0.0 0.00 0.00 0.00 54 1014.1
20260903173106 95 0.0 0.0 0.00 0.00 0.00 55 1014.2
20260903171604 94 0.0 0.0 0.00 0.00 0.00 55 1014.2
20260903170108 93 0.0 0.0 0.00 0.00 0.00 57 1014.4
20260903164608 92 0.0 0.0 0.00 0.00 0.00 58 1014.5
20260903163101 91 34 2.0 6.0 0.00 0.00 0.00 59 1014.7
20260903161605 90 121 1.0 9.0 0.00 0.00 0.00 60 1014.6
20260903160106 89 109 2.0 5.0 0.00 0.00 0.00 61 1014.7
20260903154605 89 151 0.0 4.0 0.00 0.00 0.00 63 1014.6
20260903153125 86 142 0.0 7.0 0.00 0.00 0.00 67 1014.9
20260903151618 85 158 2.0 5.0 0.00 0.00 0.00 68 1014.9
20260903150118 84 105 1.0 7.0 0.00 0.00 0.00 71 1015.1
20260903144604 83 144 1.0 7.0 0.00 0.00 0.00 72 1015.3
20260903143107 81 136 1.0 8.0 0.00 0.00 0.00 75 1015.3
20260903141559 80 137 2.0 7.0 0.00 0.00 0.00 77 1015.5